Fargo, ND

3:59 PM CDT on May 23, 2018 (GMT -0500)
Hector International

Weather History for KFAR - December, 2011

Change the Weather History Date:

Monday, December 12, 2011

  Actual Average Record
Temperature  
Mean Temperature 23 °F 15 °F  
Max Temperature 30 °F 23 °F 55 °F (1883)
Min Temperature 16 °F 7 °F -23 °F (1942)
Degree Days  
Heating Degree Days 42 50  
Month to date heating degree days 527 573  
Since 1 July heating degree days 2073 2535  
Cooling Degree Days 0 0  
Month to date cooling degree days 0 0  
Year to date cooling degree days 694 551  
Moisture  
Dew Point 13 °F    
Average Humidity 69    
Maximum Humidity 80    
Minimum Humidity 58    
Precipitation  
Precipitation 0.00 in 0.03 in 0.42 in (1973)
Month to date precipitation 0.01 0.32  
Year to date precipitation 23.60 22.10  
Snow  
Snow 0.00 in 0.30 in 4.40 in (1973)
Month to date snowfall 0.1 4.1  
Since 1 July snowfall 0.9 12.7  
Snow Depth 0.00 in    
Sea Level Pressure  
Sea Level Pressure 30.27 in    
Wind  
Wind Speed 12 mph (North)    
Max Wind Speed 18 mph    
Max Gust Speed 21 mph    
Visibility 10 miles    
Events      
T = Trace of Precipitation, MM = Missing Value Source: NWS Daily Summary

Daily Weather History Graph

Daily Weather History Graph

Search for Another Location

Airport or City:

Astronomy

Dec. 12, 2011 Rise Set
Actual Time 8:03 AM CST 4:38 PM CST
Civil Twilight 7:28 AM CST 5:13 PM CST
Nautical Twilight 6:49 AM CST 5:52 PM CST
Astronomical Twilight 6:12 AM CST 6:29 PM CST
Moon 6:54 PM CST (12/12) 9:33 AM CST (12/12)
Length of Visible Light 9h 45m
Length of Day
8h 35m
Waning Gibbous, 95% of the Moon is Illuminated
Dec 12
Waning Gibbous
Dec 17
Last Quarter
Dec 24
New
Jan 1
First Quarter
Jan 9
Full

Hourly Weather History & Observations

Time (CST) Temp. Windchill Dew Point Humidity Pressure Visibility Wind Dir Wind Speed Gust Speed Precip Events Conditions
12:53 AM 17.1 °F 8.7 °F 10.9 °F 77% 30.09 in 10.0 mi North 5.8 mph - N/A   Clear
1:53 AM 17.1 °F 6.6 °F 10.9 °F 77% 30.10 in 10.0 mi NNW 8.1 mph - N/A   Clear
2:53 AM 18.0 °F 3.1 °F 12.0 °F 78% 30.12 in 10.0 mi North 16.1 mph - N/A   Clear
3:53 AM 17.1 °F 3.6 °F 10.9 °F 77% 30.13 in 10.0 mi North 12.7 mph - N/A   Clear
4:53 AM 16.0 °F 2.3 °F 10.9 °F 81% 30.17 in 10.0 mi North 12.7 mph - N/A   Clear
5:51 AM 15.8 °F 1.4 °F 10.4 °F 79% 30.15 in 10.0 mi North 13.8 mph - N/A   Mostly Cloudy
5:53 AM 16.0 °F 1.7 °F 10.0 °F 77% 30.20 in 10.0 mi North 13.8 mph - N/A   Mostly Cloudy
6:53 AM 16.0 °F 1.7 °F 10.0 °F 77% 30.22 in 10.0 mi North 13.8 mph - N/A   Overcast
7:13 AM 15.8 °F 0.9 °F 10.4 °F 79% 30.18 in 10.0 mi North 15.0 mph - N/A   Overcast
7:53 AM 16.0 °F 1.1 °F 10.9 °F 81% 30.24 in 10.0 mi North 15.0 mph - N/A   Overcast
8:53 AM 17.1 °F 3.0 °F 12.0 °F 81% 30.26 in 9.0 mi North 13.8 mph - N/A   Overcast
9:53 AM 18.0 °F 3.6 °F 12.0 °F 78% 30.29 in 10.0 mi North 15.0 mph - N/A   Overcast
10:53 AM 19.9 °F 5.7 °F 12.0 °F 71% 30.32 in 10.0 mi North 16.1 mph - N/A   Overcast
11:19 AM 23.0 °F 11.1 °F 12.2 °F 63% 30.26 in 10.0 mi North 12.7 mph - N/A   Scattered Clouds
11:53 AM 25.0 °F 12.2 °F 14.0 °F 63% 30.32 in 10.0 mi North 16.1 mph - N/A   Clear
12:53 PM 27.0 °F 16.1 °F 15.1 °F 61% 30.31 in 10.0 mi North 12.7 mph - N/A   Clear
1:53 PM 28.9 °F 18.2 °F 17.1 °F 61% 30.30 in 10.0 mi North 13.8 mph - N/A   Clear
2:53 PM 30.0 °F 21.1 °F 17.1 °F 59% 30.30 in 10.0 mi North 10.4 mph - N/A   Clear
3:53 PM 28.9 °F 20.4 °F 17.1 °F 61% 30.32 in 10.0 mi North 9.2 mph - N/A   Clear
4:53 PM 24.1 °F 16.0 °F 15.1 °F 69% 30.36 in 9.0 mi North 6.9 mph - N/A   Mostly Cloudy
5:53 PM 24.1 °F 12.5 °F 15.1 °F 69% 30.37 in 10.0 mi North 12.7 mph - N/A   Overcast
6:53 PM 21.9 °F 9.8 °F 14.0 °F 72% 30.39 in 10.0 mi North 12.7 mph - N/A   Overcast
7:53 PM 21.0 °F 8.6 °F 14.0 °F 74% 30.39 in 10.0 mi North 12.7 mph - N/A   Overcast
8:53 PM 19.9 °F 7.9 °F 12.9 °F 74% 30.39 in 10.0 mi North 11.5 mph - N/A   Overcast
9:53 PM 19.9 °F 7.9 °F 12.9 °F 74% 30.40 in 10.0 mi North 11.5 mph - N/A   Overcast
10:53 PM 21.0 °F 12.4 °F 14.0 °F 74% 30.41 in 10.0 mi North 6.9 mph - N/A   Overcast
11:53 PM 21.0 °F 12.4 °F 12.9 °F 71% 30.40 in 10.0 mi North 6.9 mph - N/A   Overcast